Flag for Saint Lucia Weather past 2 weeks in Vieux Fort, Saint Lucia

Now
86 °F

Scattered clouds.


Feels Like: 99 °F
Forecast: 82 / 87 °F
Wind: 17 mph from East

Location: Hewanorra International Airport

Current Time: Oct 2, 2014 at 10:57:37 AM

Latest Report: Oct 2, 2014 at 10:00 AM


Visibility: N/A

Pressure: 30.04 "Hg

Humidity: 79%

Dew point: 79 °F

Location of Vieux FortLocation

Historic Weather in Vieux Fort — Graph

°F

Vieux Fort temperature yesterday

Maximum temperature yesterday: 88 °F (at 10:00 AM)
Minimum temperature yesterday: 81 °F (at 6:00 AM)
Average temperature yesterday: 85 °F

Past Weeks' High & Low Weather Summary

 TemperatureHumidityPressure
High88 °F (Sep 17, 10:00 AM)100% (Sep 19, 12:00 PM)30.04 "Hg (Sep 19, 12:00 PM)
Low75 °F (Sep 19, 11:00 AM)62% (Sep 17, 3:00 PM)29.83 "Hg (Sep 26, 2:00 AM)
Average83 °F80%29.93 "Hg
* Reported Sep 17 9:00 AM — Oct 2 9:00 AM, Vieux Fort, Weather by CustomWeather, © 2014

Note: Actual official high and low records may vary slightly from our data, if they occured in-between our weather recording intervals... More about our weather records

Advertising

Vieux Fort weather history for previous 24 hours

 ConditionsComfort  
Time TempWeatherWind HumidityBarometerVisibility
9:00 AM
Oct 2
86 °FScattered clouds.20 mph75%30.04 "HgN/A
8:00 AM84 °FScattered clouds.23 mph79%30.01 "HgN/A
7:00 AM84 °FScattered clouds.17 mph79%29.98 "HgN/A
6:00 AM84 °FPassing clouds.23 mph79%29.98 "HgN/A
5:00 AM84 °FPassing clouds.17 mph74%29.98 "HgN/A
4:00 AM82 °FPassing clouds.16 mph89%29.95 "HgN/A
3:00 AM82 °FPassing clouds.17 mph84%29.95 "HgN/A
2:00 AM82 °FPassing clouds.16 mph84%29.95 "HgN/A
1:00 AM84 °FPassing clouds.17 mph79%29.98 "HgN/A
12:00 AM82 °FPassing clouds.16 mph84%29.98 "HgN/A
11:00 PM
Oct 1
82 °FPassing clouds.20 mph89%29.98 "HgN/A
10:00 PM84 °FPassing clouds.18 mph79%29.98 "HgN/A
9:00 PM82 °FPassing clouds.16 mph89%29.98 "HgN/A
8:00 PM82 °FPassing clouds.14 mph84%29.98 "HgN/A
7:00 PM82 °FPassing clouds.16 mph84%29.98 "HgN/A
6:00 PM82 °FPassing clouds.17 mph89%29.95 "HgN/A
5:00 PM86 °FPassing clouds.17 mph70%29.95 "HgN/A
4:00 PM86 °FScattered clouds.18 mph70%29.92 "HgN/A
3:00 PM88 °FScattered clouds.16 mph70%29.95 "HgN/A
2:00 PM88 °FScattered clouds.20 mph70%29.95 "HgN/A
1:00 PM88 °FScattered clouds.18 mph70%29.98 "HgN/A
12:00 PM88 °FScattered clouds.20 mph66%30.01 "HgN/A
11:00 AM88 °FScattered clouds.20 mph66%30.01 "HgN/A
10:00 AM88 °FPassing clouds.18 mph66%30.01 "HgN/A
Weather by CustomWeather, © 2014

See weather overviewHow to use our weather pages